YACHTS Weather Reports


time (UTC)temp
F
wind
direction
speed
knots
gust
knots
rain 1hr
in
rain 24hr
in
rain mn
in
humidity
%
barometer
mb
20260905070543 54 0 0.0 0.0 0.00 0.83 0.81 94 1014.9
20260905070030 55 0 0.0 0.0 0.00 0.83 0.81 94 1014.9
20260905065517 55 0 0.0 0.0 0.00 1.04 0.81 94 1014.8
20260905065004 55 0 0.0 0.0 0.00 1.04 0.81 94 1014.8
20260905064451 55 0 0.0 0.0 0.00 1.04 0.81 94 1014.8
20260905063938 55 0 0.0 0.0 0.00 1.04 0.81 94 1014.8
20260905063425 55 0 0.0 0.0 0.00 1.04 0.81 94 1014.7
20260905062912 55 0 0.0 0.0 0.00 1.04 0.81 94 1014.7
20260905062359 55 0 0.0 0.0 0.00 1.04 0.81 94 1014.7
20260905061846 55 0 0.0 0.0 0.00 1.04 0.81 94 1014.7
20260905061333 55 0 0.0 0.0 0.00 1.04 0.81 94 1014.7
20260905060821 55 0 0.0 0.0 0.00 1.04 0.81 94 1014.6
20260905055754 55 0 0.0 0.0 0.00 1.17 0.81 94 1014.6
20260905055241 55 0 0.0 0.0 0.00 1.17 0.81 94 1014.7
20260905054728 55 0 0.0 0.0 0.00 1.17 0.81 94 1014.7
20260905054215 55 0 0.0 0.0 0.00 1.17 0.81 94 1014.6
20260905053702 55 0 0.0 0.0 0.00 1.17 0.81 94 1014.6
20260905053149 55 0 0.0 0.0 0.00 1.17 0.81 94 1014.6
20260905052636 55 0 0.0 0.0 0.00 1.17 0.81 94 1014.6
20260905052123 55 0 0.0 0.0 0.00 1.17 0.81 94 1014.6
20260905051610 55 0 0.0 0.0 0.00 1.17 0.81 94 1014.6
20260905051058 55 0 0.0 0.0 0.00 1.17 0.81 94 1014.5
20260905050544 55 0 0.0 0.0 0.00 1.17 0.81 94 1014.5
20260905050031 55 0 0.0 0.0 0.00 1.17 0.81 94 1014.5
20260905045005 55 0 0.0 0.0 0.00 1.26 0.81 94 1014.3
20260905044452 55 0 0.0 0.0 0.00 1.26 0.81 94 1014.3
20260905043939 56 0 0.0 0.0 0.00 1.26 0.81 94 1014.3
20260905043426 56 0 0.0 0.0 0.00 1.26 0.81 93 1014.3
20260905042913 55 0 0.0 0.0 0.00 1.26 0.81 93 1014.2
20260905042400 56 0 0.0 0.0 0.00 1.26 0.81 93 1014.2
20260905041847 55 0 0.0 0.0 0.00 1.26 0.81 93 1014.2
20260905041334 56 0 0.0 0.0 0.00 1.26 0.81 93 1014.1
20260905040821 55 0 0.0 0.0 0.00 1.26 0.81 93 1014.1
20260905040308 56 0 0.0 0.0 0.00 1.26 0.81 93 1014.1
20260905035756 56 0 0.0 0.0 0.00 1.37 0.81 93 1014.1
20260905035242 56 0 0.0 0.0 0.00 1.37 0.81 93 1014.1
20260905034729 56 0 0.0 0.0 0.01 1.37 0.81 93 1014.0
20260905034216 56 0 0.0 0.0 0.01 1.37 0.81 93 1013.9
20260905033703 56 0 0.0 0.0 0.03 1.37 0.81 93 1013.9
20260905033150 56 0 0.0 0.0 0.03 1.37 0.81 93 1013.8
20260905032637 56 0 0.0 0.0 0.06 1.37 0.81 93 1013.7
20260905032124 56 0 0.0 0.0 0.06 1.37 0.81 93 1013.7
20260905031058 57 0 0.0 0.0 0.06 1.37 0.81 93 1013.6
20260905030545 57 0 0.0 0.0 0.06 1.37 0.81 93 1013.6
20260905030033 57 0 0.0 3.5 0.06 1.37 0.81 92 1013.6
20260905025519 56 0 0.0 3.5 0.06 1.37 0.81 92 1013.6
20260905025006 57 0 0.0 3.5 0.06 1.37 0.81 92 1013.6
20260905024453 57 0 0.0 0.0 0.05 1.37 0.80 92 1013.5
20260905023940 58 0 0.0 3.5 0.03 1.37 0.80 92 1013.6
20260905023427 58 21 0.0 3.5 0.03 1.37 0.79 92 1013.6
20260905022914 58 74 0.0 2.6 0.00 1.37 0.78 92 1013.6
20260905022401 58 0 0.0 0.0 0.00 1.37 0.75 92 1013.6
20260905021848 58 0 0.0 0.0 0.00 1.37 0.75 92 1013.5
20260905020823 58 74 0.0 4.3 0.00 1.37 0.75 92 1013.4
20260905020309 58 61 0.9 4.3 0.00 1.37 0.75 91 1013.4
20260905015756 58 357 1.7 4.3 0.00 1.42 0.75 91 1013.3
20260905015243 58 64 0.0 4.3 0.00 1.42 0.75 91 1013.3
20260905014730 59 0 0.0 0.0 0.00 1.42 0.75 91 1013.2
20260905014217 60 0 0.0 0.0 0.00 1.42 0.75 91 1013.1
20260905013704 60 0 0.0 0.0 0.00 1.42 0.75 91 1013.1
20260905012638 60 0 0.0 0.0 0.00 1.42 0.75 91 1013.0
20260905012125 61 0 0.0 0.0 0.00 1.42 0.75 91 1013.0
20260905011612 61 0 0.0 0.0 0.00 1.42 0.75 91 1013.0
20260905011059 61 0 0.0 0.0 0.00 1.42 0.75 91 1013.0
20260905010546 61 0 0.0 0.0 0.00 1.42 0.75 91 1012.9
20260905010033 61 0 0.0 0.0 0.00 1.42 0.75 91 1012.9
20260905005520 62 0 0.0 0.0 0.00 1.48 0.75 91 1012.8
20260905005007 62 0 0.0 3.5 0.00 1.48 0.75 91 1012.7
20260905004454 63 0 0.0 3.5 0.00 1.48 0.75 92 1012.7
20260905003941 62 180 0.0 3.5 0.00 1.48 0.75 92 1012.6
20260905003428 63 0 0.0 0.0 0.00 1.48 0.75 92 1012.5
20260905002915 62 0 0.0 0.0 0.00 1.48 0.75 91 1012.5
20260905002402 63 228 0.0 3.5 0.00 1.48 0.75 91 1012.5
20260905001849 63 0 0.0 3.5 0.00 1.48 0.75 92 1012.5
20260905000823 63 256 0.9 7.0 0.00 1.48 0.75 92 1012.5
20260905000310 63 264 0.0 7.0 0.00 1.48 0.75 93 1012.4
20260904235757 62 257 0.0 7.0 0.00 1.49 0.75 93 1012.4
20260904235244 62 298 0.0 4.3 0.00 1.49 0.75 93 1012.3
20260904234218 62 313 5.2 7.8 0.01 1.49 0.75 93 1012.2
20260904233705 63 235 5.2 7.8 0.01 1.49 0.75 93 1012.3
20260904233152 63 287 1.7 7.0 0.01 1.49 0.75 93 1012.2
20260904232639 63 271 3.5 7.8 0.01 1.49 0.75 93 1012.2
20260904232126 63 0 0.0 7.8 0.01 1.49 0.75 94 1012.1
20260904231613 62 0 0.0 7.8 0.01 1.49 0.75 94 1012.1
20260904231100 62 273 2.6 9.6 0.01 1.49 0.75 93 1012.1
20260904230547 62 236 1.7 9.6 0.01 1.49 0.75 94 1012.2
20260904230034 61 252 4.3 9.6 0.01 1.49 0.75 94 1012.2
20260904225521 61 275 5.2 8.7 0.01 1.48 0.75 94 1012.1
20260904225008 60 329 5.2 8.7 0.01 1.48 0.75 94 1012.1
20260904224455 59 0 1.7 7.8 0.00 1.48 0.75 94 1012.2
20260904223942 60 252 2.6 7.8 0.00 1.48 0.74 93 1012.2
20260904223429 61 254 0.0 7.8 0.00 1.48 0.74 93 1012.1
20260904222916 61 257 0.9 5.2 0.00 1.48 0.74 94 1012.1
20260904222403 61 0 0.0 0.0 0.00 1.48 0.74 94 1012.0
20260904221337 60 259 2.6 5.2 0.00 1.48 0.74 94 1012.0
20260904220824 61 226 0.0 5.2 0.00 1.48 0.74 94 1012.1
20260904220311 61 170 0.0 1.7 0.00 1.48 0.74 94 1012.1
20260904215758 61 0 0.0 0.0 0.00 1.48 0.74 94 1012.0
20260904215245 62 0 0.0 5.2 0.00 1.48 0.74 93 1012.0
20260904214219 62 201 0.0 5.2 0.00 1.48 0.74 94 1011.9
20260904213706 62 0 0.0 0.0 0.00 1.48 0.74 95 1011.9
20260904213153 61 0 0.0 0.0 0.00 1.48 0.74 95 1011.9
20260904212640 60 0 0.0 0.0 0.00 1.48 0.74 95 1011.8
20260904212127 59 0 0.0 4.3 0.00 1.48 0.74 95 1011.8
20260904211614 59 0 0.0 4.3 0.00 1.48 0.74 95 1011.7
20260904211101 59 0 0.0 4.3 0.00 1.48 0.74 95 1011.7
20260904210548 60 207 0.0 2.6 0.00 1.48 0.74 95 1011.7
20260904210035 60 0 0.0 4.3 0.00 1.48 0.74 95 1011.7
20260904205522 60 0 0.0 4.3 0.00 1.54 0.74 94 1011.8
20260904205009 62 0 0.0 4.3 0.00 1.54 0.74 95 1011.7
20260904204456 62 0 0.0 0.0 0.00 1.54 0.74 95 1011.6
20260904203943 61 0 0.0 0.0 0.00 1.54 0.74 96 1011.7
20260904203430 58 0 0.0 0.0 0.00 1.54 0.74 96 1011.7
20260904202917 59 0 0.0 0.0 0.00 1.54 0.74 96 1011.8
20260904202404 58 0 0.0 0.0 0.00 1.54 0.74 96 1011.8
20260904201851 58 0 0.0 0.0 0.00 1.54 0.74 95 1011.7
20260904200825 58 0 0.0 1.7 0.00 1.54 0.74 95 1011.8
20260904200313 59 235 0.0 1.7 0.00 1.54 0.74 95 1011.7
20260904195759 60 0 0.0 0.0 0.00 1.56 0.74 95 1011.6
20260904195245 59 0 0.0 0.0 0.00 1.56 0.74 96 1011.5
20260904194733 58 0 0.0 0.0 0.00 1.56 0.74 96 1011.5
20260904194220 58 0 0.0 0.0 0.00 1.56 0.74 96 1011.5
20260904193707 58 0 0.0 0.0 0.01 1.56 0.74 96 1011.5
20260904193153 57 0 0.0 0.0 0.01 1.56 0.74 96 1011.5
20260904192641 57 0 0.0 0.0 0.01 1.56 0.74 96 1011.5
20260904192127 58 0 0.0 0.0 0.01 1.56 0.74 96 1011.5
20260904191614 58 0 0.0 0.0 0.01 1.56 0.74 96 1011.5
20260904191101 58 0 0.0 0.0 0.01 1.56 0.74 96 1011.6
20260904190548 58 0 0.0 0.0 0.01 1.56 0.74 96 1011.5
20260904190035 58 0 0.0 0.0 0.01 1.56 0.74 96 1011.5
20260904185522 58 0 0.0 0.0 0.01 1.75 0.74 96 1011.5
20260904184456 58 0 0.0 0.0 0.01 1.75 0.74 96 1011.4
20260904183943 57 0 0.0 0.0 0.01 1.75 0.74 96 1011.3
20260904183430 57 0 0.0 0.0 0.00 1.75 0.73 96 1011.2
20260904182917 56 0 0.0 0.0 0.00 1.75 0.73 96 1011.2
20260904182404 57 0 0.0 0.0 0.00 1.75 0.73 96 1011.2
20260904181851 56 0 0.0 0.0 0.00 1.75 0.73 96 1011.2
20260904180312 56 0 0.0 0.0 0.01 1.75 0.73 96 1011.0
20260904175759 56 0 0.0 0.0 0.01 1.80 0.73 96 1010.9
20260904175246 56 0 0.0 0.0 0.01 1.80 0.73 96 1010.8
20260904174733 56 0 0.0 0.0 0.02 1.80 0.73 96 1010.8
20260904173707 56 0 0.0 0.0 0.03 1.80 0.73 96 1010.6
20260904173154 55 0 0.0 0.0 0.03 1.80 0.73 96 1010.5
20260904172641 56 0 0.0 0.0 0.05 1.80 0.73 96 1010.5
20260904172129 56 0 0.0 0.0 0.05 1.80 0.73 96 1010.4
20260904171102 55 0 0.0 0.0 0.06 1.80 0.73 96 1010.4
20260904170549 56 0 0.0 0.0 0.05 1.80 0.72 96 1010.5
20260904170036 55 0 0.0 0.0 0.05 1.80 0.72 96 1010.4
20260904165010 55 0 0.0 0.0 0.05 1.76 0.72 96 1010.3
20260904164457 55 0 0.0 0.0 0.04 1.76 0.71 96 1010.3
20260904163944 55 0 0.0 0.0 0.04 1.76 0.71 96 1010.2
20260904163431 54 0 0.0 0.0 0.03 1.76 0.71 96 1010.3
20260904162918 55 0 0.0 0.0 0.02 1.76 0.70 96 1010.2
20260904162405 55 0 0.0 0.0 0.02 1.76 0.70 96 1010.2
20260904161852 55 0 0.0 0.0 0.03 1.76 0.68 96 1010.2
20260904160314 54 0 0.0 0.0 0.04 1.76 0.67 96 1010.2
20260904155800 55 0 0.0 0.0 0.05 1.72 0.67 96 1010.2
20260904155247 55 0 0.0 0.0 0.05 1.72 0.67 96 1010.1
20260904154734 55 0 0.0 0.0 0.07 1.72 0.67 96 1010.1
20260904154221 54 0 0.0 0.0 0.07 1.72 0.67 96 1010.1
20260904153155 54 0 0.0 0.0 0.07 1.72 0.67 96 1009.9
20260904152129 54 0 0.0 0.0 0.06 1.72 0.66 96 1009.9
20260904151616 55 0 0.0 0.0 0.04 1.72 0.65 96 1009.9
20260904151103 54 0 0.0 0.0 0.04 1.72 0.64 96 1009.8
20260904150037 54 0 0.0 0.0 0.03 1.72 0.63 96 1009.7
20260904145524 54 0 0.0 0.0 0.03 1.69 0.63 96 1009.6
20260904145011 54 0 0.0 0.0 0.03 1.69 0.62 96 1009.5
20260904144458 54 0 0.0 0.0 0.02 1.69 0.61 96 1009.5
20260904143945 54 0 0.0 0.0 0.02 1.69 0.60 96 1009.4
20260904143432 54 0 0.0 0.0 0.02 1.69 0.60 96 1009.3
20260904142919 54 0 0.0 0.0 0.02 1.69 0.60 96 1009.2
20260904142406 54 0 0.0 0.0 0.02 1.69 0.60 96 1009.1
20260904141853 54 0 0.0 0.0 0.04 1.69 0.60 96 1009.0
20260904141341 54 0 0.0 0.0 0.04 1.69 0.60 96 1009.1
20260904140828 54 0 0.0 0.0 0.06 1.69 0.60 96 1008.9
20260904140314 54 0 0.0 0.0 0.06 1.69 0.60 96 1008.8
20260904135801 55 0 0.0 0.0 0.10 1.63 0.59 96 1008.7
20260904135248 54 0 0.0 0.0 0.10 1.63 0.59 96 1008.7
20260904134735 55 0 0.0 7.8 0.09 1.63 0.59 96 1008.7
20260904134222 55 0 0.0 7.8 0.09 1.63 0.58 96 1008.6
20260904133709 54 176 1.7 7.8 0.09 1.63 0.58 96 1008.5
20260904133156 54 0 0.0 6.1 0.09 1.63 0.58 96 1008.4
20260904132643 54 0 0.0 6.1 0.09 1.63 0.58 96 1008.3
20260904132130 54 142 0.0 6.1 0.09 1.63 0.58 96 1008.3
20260904131617 55 0 0.0 0.0 0.07 1.63 0.58 96 1008.2
20260904131104 55 0 0.0 7.8 0.07 1.63 0.56 96 1008.1
20260904130551 55 0 0.0 7.8 0.06 1.63 0.54 96 1008.0
20260904125525 54 0 0.0 5.2 0.02 1.58 0.52 96 1007.9
20260904125012 54 0 0.0 5.2 0.02 1.58 0.49 96 1007.9
20260904124459 54 0 0.0 5.2 0.04 1.58 0.49 96 1007.9
20260904123946 54 0 0.0 0.0 0.04 1.58 0.49 96 1007.8
20260904123433 54 0 0.0 10.4 0.18 1.58 0.49 96 1007.9
20260904122920 55 0 0.0 10.4 0.22 1.58 0.49 96 1007.9
20260904122407 54 133 0.0 10.4 0.22 1.58 0.49 96 1007.8
20260904121854 54 0 0.0 0.0 0.25 1.58 0.49 96 1007.7
20260904121341 54 0 0.0 0.0 0.25 1.58 0.49 96 1007.8
20260904120830 54 0 0.0 2.6 0.26 1.58 0.49 96 1007.6
20260904120315 53 0 0.0 2.6 0.26 1.58 0.49 96 1007.6
20260904115802 54 0 0.0 2.6 0.29 1.57 0.48 96 1007.5
20260904115249 54 0 0.0 0.0 0.29 1.57 0.47 96 1007.3
20260904114736 54 0 0.0 2.6 0.33 1.57 0.47 96 1007.2
20260904114223 54 114 0.0 2.6 0.33 1.57 0.46 96 1007.1
20260904113710 54 0 0.0 2.6 0.21 1.57 0.43 96 1006.9
20260904113157 53 85 0.0 2.6 0.21 1.57 0.34 96 1007.1
20260904112644 54 0 0.0 0.0 0.18 1.57 0.29 96 1007.1
20260904112131 54 0 0.0 0.0 0.18 1.57 0.27 96 1007.1
20260904111618 53 0 0.0 0.0 0.15 1.57 0.26 96 1007.0
20260904105526 54 0 0.0 0.0 0.10 1.49 0.20 96 1006.7
20260904105013 54 0 0.0 0.0 0.10 1.49 0.18 96 1006.8
20260904104500 53 0 0.0 0.0 0.07 1.49 0.14 96 1007.1
20260904103947 53 0 0.0 0.0 0.07 1.49 0.12 96 1007.0
20260904103434 54 0 0.0 0.0 0.07 1.49 0.11 96 1007.0
20260904102921 54 0 0.0 0.0 0.07 1.49 0.10 95 1007.0
20260904102408 53 0 0.0 0.0 0.07 1.49 0.09 96 1006.9
20260904101855 53 0 0.0 0.0 0.07 1.49 0.09 96 1006.9
20260904101342 53 0 0.0 0.0 0.07 1.49 0.09 95 1006.7
20260904100829 54 0 0.0 0.0 0.07 1.49 0.09 95 1006.9
20260904100316 53 0 0.0 0.0 0.07 1.49 0.09 95 1006.9
20260904095803 53 0 0.0 0.0 0.06 1.43 0.09 95 1006.9
20260904095250 54 0 0.0 0.0 0.06 1.43 0.08 95 1007.0
20260904094737 54 0 0.0 0.0 0.03 1.43 0.07 96 1007.0
20260904094224 53 0 0.0 0.0 0.03 1.43 0.05 95 1007.1
20260904093711 53 0 0.0 0.0 0.03 1.43 0.05 95 1007.2
20260904093158 53 0 0.0 0.0 0.03 1.43 0.04 95 1007.1
20260904092132 53 0 0.0 0.0 0.02 1.43 0.02 95 1007.2
20260904091619 53 0 0.0 0.0 0.02 1.43 0.02 95 1007.2
20260904091106 53 0 0.0 0.0 0.02 1.43 0.02 95 1007.2
20260904090553 53 0 0.0 0.0 0.02 1.43 0.02 95 1007.2
20260904090040 54 0 0.0 0.0 0.02 1.43 0.02 95 1007.3
20260904085527 54 0 0.0 0.0 0.02 1.41 0.02 95 1007.3
20260904085014 53 0 0.0 0.0 0.02 1.41 0.02 95 1007.3
20260904084501 53 0 0.0 0.0 0.02 1.41 0.02 95 1007.3
20260904083948 54 0 0.0 0.0 0.02 1.41 0.02 95 1007.2
20260904083435 53 0 0.0 0.0 0.00 1.41 0.02 95 1007.2
20260904082922 53 0 0.0 0.0 0.01 1.41 0.00 95 1007.2
20260904082409 53 0 0.0 0.0 0.01 1.41 0.00 95 1007.2
20260904081856 53 0 0.0 0.0 0.02 1.41 0.00 95 1007.2
20260904081343 53 0 0.0 0.0 0.02 1.41 0.00 95 1007.1
20260904080830 53 0 0.0 0.0 0.02 1.41 0.00 95 1007.0
20260904080317 53 0 0.0 0.0 0.02 1.41 0.00 95 1006.9
20260904075804 53 0 0.0 0.0 0.02 1.41 0.00 95 1007.0
20260904075251 54 0 0.0 0.0 0.02 1.41 1.41 95 1007.0
20260904074738 54 0 0.0 0.0 0.03 1.41 1.41 95 1007.0
20260904074225 54 0 0.0 0.0 0.03 1.41 1.41 95 1007.0
20260904073712 54 0 0.0 0.0 0.03 1.41 1.41 95 1007.0
20260904073158 54 0 0.0 0.0 0.03 1.41 1.41 95 1007.0
20260904072646 53 0 0.0 0.0 0.03 1.41 1.41 95 1007.0
20260904072133 54 0 0.0 0.0 0.03 1.40 1.40 95 1007.0
20260904071620 54 0 0.0 0.0 0.07 1.40 1.40 95 1007.0
20260904071106 54 0 0.0 0.0 0.07 1.39 1.39 95 1006.9